Startseite
Über Mich
AHP4
Galerie
Sehschlangen
Tourenbuch
Bookmarks
Elektronik
Bewertung
Geschichten
[Tagesmessung] [Jahreswerte] [Information]

Messwerte vom 30.09.2022

Die letzten Messwerte von 23:58:45 Uhr:
KategorieMesswert
Temperatur [°C]9
Luftdruck [mBar]994
Sonneneinstrahlung0
Wind [km/h]1 aus Südost
Niederschlag [l/m²]0
rel.Luftfeucht.82.4%
CO2 [ppm]746

Diagramme
Messwerte vom 30.09.2022
Tagesaggregation
KategorieMinimumMaximumSchnittSumme
Temperatur [°C]2229.3167
Luftdruck [mBar]991996993.6938
Sonneneinstrahlung24696.4438
Wind [km/h]12
rF [%]3896.680.1
Niederschlag [l/m²]0
CO2 [ppm]401826652.1
Einordnung alsVegetationstag

Messungen an benachbarten Tagen: Zur Jahresaggregation 2022
Tabelle aller Messwerte
UhrzeitTemperatur [°C]Luftdruck [mBar]SonneWind [km/h]RichtungRegen [l/m²]rF [%]CO2 [ppm]
00:01:46 5 991 0 0 NO 0 96.6 404
00:04:45 5 991 0 0 NO 0 96.6 404
00:07:47 5 991 0 0 NO 0 96.6 403
00:10:46 5 991 0 0 NO 0 96.6 404
00:13:45 5 991 0 0 NO 0 96.6 404
00:16:50 5 991 0 0 NO 0 96.6 407
00:19:46 4 991 0 0 NO 0 96.6 407
00:22:46 4 991 0 0 NO 0 96.6 401
00:25:46 4 991 0 0 NO 0 96.6 404
00:28:46 4 991 0 0 NO 0 96.6 405
00:31:45 4 991 0 0 NO 0 96.6 404
00:34:49 4 991 0 0 NO 0 96.6 407
00:37:46 4 991 0 0 NO 0 96.6 406
00:40:47 4 991 0 0 NO 0 96.6 407
00:43:47 4 991 0 0 SO 0 96.6 404
00:46:49 4 991 0 0 SO 0 96.6 404
00:49:47 4 991 0 0 SO 0 96.6 404
00:52:46 4 991 0 0 SO 0 96.6 407
00:55:48 4 991 0 0 N 0 96.6 408
00:58:44 4 991 0 0 N 0 96.6 406
01:01:48 4 991 0 0 N 0 96.6 404
01:04:44 4 991 0 0 N 0 96.6 407
01:07:45 4 991 0 0 N 0 96.6 404
01:10:45 4 991 0 0 N 0 96.6 407
01:13:45 4 991 0 0 N 0 96.6 404
01:16:45 4 991 0 0 N 0 96.6 406
01:19:47 4 991 0 0 NO 0 96.6 404
01:22:46 4 991 0 0 NO 0 96.6 406
01:25:47 4 991 0 0 NO 0 96.6 791
01:28:47 4 991 0 0 NO 0 96.6 789
01:31:47 4 991 0 0 NO 0 96.6 793
01:34:46 4 991 0 0 NO 0 96.6 788
01:37:46 4 991 0 0 NO 0 96.6 787
01:40:46 4 991 0 0 NO 0 96.6 784
01:43:46 4 992 0 0 NO 0 96.6 785
01:46:46 4 991 0 0 NO 0 96.6 785
01:49:47 4 991 0 0 NO 0 96.6 782
01:52:45 4 991 0 0 NO 0 96.6 782
01:55:46 4 992 0 0 NO 0 96.6 788
01:58:45 4 992 0 0 NO 0 96.6 794
02:01:47 4 991 0 0 NO 0 96.6 797
02:04:47 3 991 0 0 NO 0 96.6 790
02:07:47 3 991 0 0 NO 0 96.6 800
02:10:47 3 991 0 0 NO 0 96.6 799
02:13:45 3 991 0 0 NO 0 96.6 801
02:16:48 4 991 0 0 NO 0 96.6 799
02:19:47 3 991 0 0 NO 0 96.6 807
02:22:49 3 992 0 0 NO 0 96.6 806
02:25:46 3 991 0 0 NO 0 96.6 814
02:28:48 3 991 0 0 NO 0 96.6 809
02:31:49 3 991 0 0 NO 0 96.6 802
02:34:48 3 991 0 0 NO 0 96.6 803
02:37:47 3 991 0 0 NO 0 96.6 800
02:40:48 3 991 0 0 NO 0 96.6 800
02:43:47 3 991 0 0 NO 0 96.6 801
02:46:47 3 991 0 0 NO 0 96.6 796
02:49:46 3 991 0 0 NO 0 96.6 803
02:52:46 3 991 0 0 NO 0 96.6 799
02:55:47 3 991 0 0 NO 0 96.6 806
02:58:46 3 991 0 0 NO 0 96.6 796
03:01:46 3 992 0 0 NO 0 96.6 801
03:04:46 3 991 0 0 NO 0 96.6 797
03:07:46 3 991 0 0 NO 0 96.6 797
03:10:48 3 991 0 0 NO 0 96.6 807
03:13:47 3 992 0 0 NO 0 96.6 805
03:16:48 3 991 0 0 NO 0 96.6 797
03:19:46 3 991 0 0 NO 0 96.6 797
03:22:47 3 991 0 0 NO 0 96.6 803
03:25:46 3 992 0 0 NO 0 96.6 801
03:28:47 3 991 0 0 NO 0 96.6 805
03:31:47 3 991 0 0 NO 0 96.6 806
03:34:47 3 992 0 0 NO 0 96.6 800
03:37:46 3 991 0 0 NO 0 96.6 796
03:40:46 3 991 0 0 SO 0 96.6 796
03:43:46 3 991 0 0 SO 0 96.6 803
03:46:48 3 991 0 0 SO 0 96.6 803
03:49:49 3 992 0 0 NO 0 96.6 800
03:52:47 3 991 0 0 NO 0 96.6 792
03:55:49 3 991 0 0 NO 0 96.6 790
03:58:45 3 991 0 0 NO 0 96.6 791
04:01:47 3 991 0 0 S 0 96.6 793
04:04:46 3 991 0 0 S 0 96.6 792
04:07:44 3 991 0 0 S 0 96.6 796
04:10:44 3 991 0 0 S 0 96.6 796
04:13:47 3 992 0 0 S 0 96.6 803
04:16:46 3 992 0 0 S 0 96.6 803
04:19:45 3 991 0 0 S 0 96.6 802
04:22:45 3 992 0 0 S 0 96.6 794
04:25:46 3 992 0 0 S 0 96.6 792
04:28:45 3 992 0 0 S 0 96.6 799
04:31:46 3 992 0 0 S 0 96.6 800
04:34:47 3 991 0 0 S 0 96.6 806
04:37:46 3 991 0 0 S 0 96.6 805
04:40:49 3 992 0 0 S 0 96.6 802
04:43:46 3 992 0 0 S 0 96.6 809
04:46:46 3 991 0 0 S 0 96.6 811
04:49:49 3 993 0 0 S 0 96.6 806
04:52:46 3 992 0 0 S 0 96.6 808
04:55:48 3 992 0 0 S 0 96.6 810
04:58:46 3 992 0 0 N 0 96.6 811
05:01:46 3 992 0 0 N 0 96.6 810
05:04:45 3 992 0 0 N 0 96.6 808
05:07:47 3 991 0 0 N 0 96.6 807
05:10:47 2 991 0 0 N 0 96.6 814
05:13:46 2 992 0 0 N 0 96.6 810
05:16:46 2 992 0 0 N 0 96.6 813
05:19:47 2 992 0 0 O 0 96.6 820
05:22:46 2 992 0 0 O 0 96.6 820
05:25:47 2 992 0 0 O 0 96.6 814
05:28:47 2 992 0 0 O 0 96.6 819
05:31:46 2 992 0 0 O 0 96.6 816
05:34:46 2 992 0 0 O 0 96.6 819
05:37:46 2 992 0 0 O 0 96.6 820
05:40:47 2 992 0 0 O 0 96.6 816
05:43:46 2 992 0 0 O 0 96.6 805
05:46:45 2 992 0 0 O 0 96.6 813
05:49:46 2 992 0 0 O 0 96.6 813
05:52:47 2 992 0 0 O 0 96.6 810
05:55:46 2 992 0 0 O 0 96.6 812
05:58:47 2 992 0 0 O 0 96.6 814
06:01:45 2 992 0 0 O 0 96.6 817
06:04:47 2 992 0 0 O 0 96.6 814
06:07:48 2 993 0 0 O 0 96.6 815
06:10:46 2 993 0 0 O 0 96.6 813
06:13:48 2 992 0 0 O 0 96.6 811
06:16:45 2 993 0 0 O 0 96.6 805
06:19:45 2 992 0 0 O 0 96.6 805
06:22:47 2 992 0 0 O 0 96.6 803
06:25:48 2 992 0 0 O 0 96.6 808
06:28:48 2 993 0 0 O 0 96.6 808
06:31:47 2 994 0 0 O 0 96.6 815
06:34:46 2 993 0 0 O 0 96.6 817
06:37:46 2 993 0 0 O 0 96.6 820
06:40:46 2 993 0 0 O 0 96.6 822
06:43:46 2 993 0 0 O 0 96.6 824
06:46:45 2 993 0 0 O 0 96.6 826
06:49:48 2 993 0 0 O 0 96.6 819
06:52:46 2 993 3 0 O 0 96.6 817
06:55:46 2 993 5 0 O 0 96.6 821
06:58:45 2 993 9 0 O 0 96.6 815
07:01:48 2 993 14 0 O 0 96.6 820
07:04:48 2 993 21 0 O 0 96.6 808
07:07:46 2 993 30 0 O 0 96.6 811
07:10:47 2 993 41 0 O 0 96.6 807
07:13:46 2 992 54 0 O 0 96.6 816
07:16:45 2 993 66 0 O 0 96.6 820
07:19:48 2 993 78 0 O 0 96.6 823
07:22:48 2 994 89 0 O 0 96.6 820
07:25:46 2 994 99 0 O 0 96.6 811
07:28:45 2 993 71 0 O 0 96.6 759
07:31:47 2 993 115 0 O 0 96.6 527
07:34:47 2 994 122 0 O 0 96.6 575
07:37:48 2 993 129 0 O 0 96.6 616
07:40:45 2 994 134 0 O 0 96.6 644
07:43:46 2 994 139 0 O 0 96.6 677
07:46:47 2 994 143 0 O 0 96.6 678
07:49:46 2 994 147 0 O 0 96.6 681
07:52:46 2 993 150 0 O 0 96.6 686
07:55:48 2 994 153 0 O 0 96.6 694
07:58:45 2 994 156 0 O 0 96.6 685
08:01:47 3 994 158 0 N 0 96.6 694
08:04:46 3 994 160 0 N 0 96.6 700
08:07:47 3 994 162 0 N 0 96.6 688
08:10:48 3 993 163 0 N 0 96.6 670
08:13:46 3 994 165 0 N 0 96.6 664
08:16:48 3 994 166 0 N 0 96.6 674
08:19:48 3 994 167 0 N 0 96.6 679
08:22:46 3 994 168 0 N 0 96.6 676
08:25:46 3 994 169 0 N 0 96.6 670
08:28:46 3 993 170 0 N 0 96.6 672
08:31:48 3 994 171 0 N 0 96.6 673
08:34:48 3 994 172 0 N 0 96.6 671
08:37:47 3 994 173 0 N 0 96.6 671
08:40:46 4 995 173 0 N 0 96.6 674
08:43:47 4 994 174 0 N 0 96.6 671
08:46:51 4 994 174 0 SO 0 96.6 667
08:49:47 4 994 174 0 SO 0 96.6 656
08:52:47 4 995 175 0 N 0 96.6 645
08:55:46 4 994 176 0 N 0 96.6 647
08:58:48 5 995 176 0 N 0 96.6 651
09:01:46 5 994 177 0 N 0 96.6 651
09:04:46 5 994 177 0 N 0 96.6 648
09:07:47 5 995 177 0 O 0 96.6 648
09:10:48 5 995 178 0 N 0 96.6 648
09:13:48 5 995 178 0 N 0 96.6 648
09:16:48 5 995 178 0 N 0 96.6 648
09:19:45 5 994 179 0 N 0 96.6 648
09:22:44 5 994 179 0 N 0 96.6 644
09:25:49 6 995 179 0 O 0 96.6 651
09:28:49 6 995 180 0 SO 0 96.6 650
09:31:48 6 994 180 0 S 0 96.6 653
09:34:48 6 995 180 0 SO 0 96.6 643
09:37:46 6 994 180 0 W 0 96.6 642
09:40:47 6 995 181 0 W 0 96.6 633
09:43:47 7 994 181 0 W 0 96.6 631
09:46:49 7 994 182 0 SO 0 96.6 630
09:49:47 7 995 182 0 S 0 96.6 633
09:52:48 7 995 182 0 SW 0 96.6 635
09:55:50 7 995 183 0 S 0 96.6 627
09:58:46 7 995 183 0 S 0 96.6 630
10:01:48 7 995 184 0 S 0 96.6 627
10:04:48 7 994 184 0 SO 0 96.6 626
10:07:46 8 995 184 0 S 0 96.6 626
10:10:46 8 994 185 0 W 0 96.6 626
10:13:49 8 995 185 0 NW 0 96.6 632
10:16:46 8 995 185 0 W 0 96.6 629
10:19:47 8 995 186 0 NW 0 96.6 624
10:22:47 8 995 187 0 NW 0 96.6 618
10:25:49 9 995 187 0 SO 0 96.6 621
10:28:49 9 995 188 0 SO 0 96.6 625
10:31:45 9 995 189 0 S 0 96.6 621
10:34:47 9 995 190 0 SW 0 96.6 613
10:37:48 9 995 191 0 SW 0 96.6 607
10:40:49 9 995 193 0 W 0 96.6 606
10:43:49 9 995 194 0 SW 0 96.6 609
10:46:47 9 995 195 0 SW 0 96.6 606
10:49:47 10 995 196 0 SW 0 96.6 606
10:52:45 10 995 197 0 W 0 96.6 605
10:55:48 10 995 197 0 W 0 96.6 607
10:58:49 10 995 197 0 SO 0 96.6 601
11:01:47 10 995 198 0 W 0 96.6 599
11:04:49 11 995 198 0 SW 0 96.6 602
11:07:47 11 995 198 0 S 0 96.6 598
11:10:51 11 995 199 0 SW 0 96 603
11:13:46 11 995 199 0 S 0 94.9 604
11:16:47 11 995 199 0 W 0 95.2 603
11:19:48 11 995 199 0 NW 0 94.9 598
11:22:47 12 995 199 1 W 0 93.2 605
11:25:48 12 995 200 0 W 0 91.8 606
11:28:48 12 995 200 2 NW 0 90.9 604
11:31:48 12 996 200 4 W 0 89.5 597
11:34:49 12 995 200 0 W 0 90.2 595
11:37:48 12 995 200 2 S 0 90.5 597
11:40:48 12 995 201 0 SW 0 84.5 591
11:43:50 12 995 201 3 SW 0 87 592
11:46:47 13 995 202 1 SW 0 86.6 594
11:49:50 13 995 202 2 SW 0 84.4 593
11:52:48 13 995 202 0 S 0 82.9 592
11:55:47 13 995 203 1 S 0 78.7 593
11:58:48 13 995 203 1 SW 0 79.1 594
12:01:48 13 995 203 0 O 0 80.2 592
12:04:31 12 994 204 3 W 0 71.7 591
12:07:47 14 995 204 1 W 0 77.9 592
12:10:50 14 995 204 1 NO 0 77.5 591
12:13:49 14 995 204 1 SW 0 77.3 580
12:16:47 15 995 205 2 S 0 72.1 579
12:19:48 15 994 205 4 SO 0 71 583
12:22:48 16 995 205 0 SW 0 71.9 586
12:25:46 17 995 207 0 0 67.7 582
12:28:33 14 995 207 1 SO 0 60.7 583
12:31:48 18 994 207 0 W 0 64.7 580
12:34:47 18 995 208 0 S 0 55.4 586
12:37:50 19 995 209 2 SW 0 54.9 585
12:40:49 19 995 209 1 SW 0 60.2 585
12:43:51 19 995 209 0 N 0 60.6 586
12:46:48 20 995 210 0 SO 0 60.3 578
12:49:51 20 995 210 1 SW 0 56.9 582
12:52:49 20 995 210 2 SW 0 56.2 574
12:55:49 20 995 211 9 W 0 48.1 572
12:58:48 21 995 212 4 W 0 46 570
13:01:49 21 995 213 4 SW 0 45.2 568
13:04:48 21 995 213 5 SO 0 45.2 573
13:07:49 21 995 213 2 SO 0 47.5 583
13:10:48 20 995 214 3 S 0 45.3 587
13:13:48 20 995 215 0 S 0 46.2 578
13:16:49 21 995 217 12 NW 0 46.6 579
13:19:49 21 995 218 5 W 0 46.6 579
13:22:50 21 995 211 3 SW 0 46.5 576
13:25:47 20 995 220 1 SW 0 45.7 575
13:28:50 21 995 222 0 SW 0 47.4 581
13:31:49 21 995 222 0 S 0 47.4 580
13:34:47 21 995 219 6 S 0 45.4 582
13:37:48 21 995 227 7 S 0 43.8 579
13:40:49 21 995 225 2 NW 0 42.9 574
13:43:48 22 995 225 7 SW 0 44.5 577
13:46:48 22 995 226 1 SW 0 43.5 575
13:49:49 22 995 227 1 S 0 42.8 571
13:52:47 22 994 228 4 SW 0 40.1 572
13:55:46 22 995 228 2 S 0 39.3 565
13:58:46 22 995 228 3 S 0 38 565
14:01:48 22 995 228 5 S 0 40.7 559
14:04:47 22 995 228 1 S 0 41.7 566
14:07:48 21 995 225 1 SW 0 43.2 568
14:10:49 21 995 228 1 NW 0 49 559
14:13:47 22 995 228 1 W 0 44 563
14:16:49 22 995 228 1 NW 0 46.2 565
14:19:48 22 995 228 3 NW 0 46.5 568
14:22:48 21 995 222 0 W 0 44.7 571
14:25:48 21 995 230 0 O 0 44.5 567
14:28:48 21 995 219 0 S 0 46 562
14:31:46 21 995 234 1 S 0 46.2 565
14:34:45 21 995 223 1 S 0 46.1 564
14:37:49 21 995 225 1 SW 0 43.9 565
14:40:48 20 995 241 1 SW 0 45.9 564
14:43:47 20 995 241 0 W 0 46.9 562
14:46:49 21 995 242 1 NW 0 47 562
14:49:47 21 995 237 5 S 0 45.9 562
14:52:48 21 995 221 2 SW 0 45.7 562
14:55:49 21 995 241 1 W 0 45.5 559
14:58:48 20 995 223 2 NW 0 46.3 559
15:01:49 19 994 223 1 SW 0 45.9 556
15:04:47 19 994 240 0 W 0 50.7 559
15:07:48 19 995 233 0 SW 0 49.6 559
15:10:47 19 995 219 2 S 0 48.9 554
15:13:49 18 995 214 0 SW 0 49.5 559
15:16:48 18 995 224 0 SW 0 49.7 559
15:19:48 18 995 237 0 SW 0 52.6 563
15:22:47 18 995 235 0 SO 0 54.4 559
15:25:48 19 995 227 0 SO 0 54.3 554
15:28:49 19 995 234 0 SW 0 51.6 556
15:31:33 17 995 230 0 SW 0 40 558
15:34:47 19 995 232 0 W 0 51.4 556
15:37:48 20 995 236 0 S 0 50.2 553
15:40:46 20 995 242 1 S 0 49 547
15:43:49 20 995 245 1 NO 0 47.6 558
15:46:50 20 995 246 4 SW 0 48.6 550
15:49:48 20 994 226 5 SO 0 46.3 559
15:52:46 20 995 223 1 S 0 45.7 556
15:55:47 19 995 246 3 SO 0 44.9 556
15:58:48 19 995 246 3 S 0 44.5 550
16:01:48 19 995 246 6 S 0 44.7 548
16:04:46 19 994 246 2 S 0 45.6 548
16:07:48 20 995 246 0 NW 0 44.5 550
16:10:48 19 995 246 6 W 0 44.4 544
16:13:46 19 994 232 5 S 0 45.5 544
16:16:46 19 994 236 3 SW 0 45.1 544
16:19:47 18 995 241 1 S 0 45.2 545
16:22:48 18 995 210 2 SW 0 46.1 547
16:25:48 18 994 220 2 SW 0 45.3 538
16:28:48 17 995 215 2 SW 0 46 547
16:31:49 17 995 207 2 S 0 48.6 539
16:34:47 17 995 207 0 SW 0 49.4 544
16:37:47 17 995 206 0 S 0 49.2 539
16:40:49 17 995 206 1 0 47.7 542
16:43:46 17 994 206 2 S 0 47.4 538
16:46:46 17 995 205 1 S 0 47.8 539
16:49:49 17 995 204 6 SO 0 47.6 538
16:52:48 17 995 204 0 S 0 49.9 544
16:55:49 17 995 204 4 SW 0 49.8 542
16:58:50 17 995 204 3 SW 0 49.1 536
17:01:48 17 995 203 2 SO 0 48.1 541
17:04:47 17 994 202 3 SO 0 48.3 539
17:07:48 16 995 202 0 SW 0 49.3 541
17:10:48 16 995 202 1 S 0 50.1 545
17:13:49 16 995 202 2 SO 0 49.7 544
17:16:49 16 994 202 1 SW 0 49.2 545
17:19:49 16 995 201 0 S 0 49.8 548
17:22:48 16 995 201 4 SW 0 49.9 542
17:25:48 16 994 201 0 SW 0 50.2 548
17:28:48 16 995 200 1 SW 0 51.2 546
17:31:47 16 994 200 0 S 0 51.3 539
17:34:47 15 995 198 1 SW 0 51.7 545
17:37:47 15 994 197 0 S 0 52.9 545
17:40:48 15 995 197 1 S 0 54.3 550
17:43:46 15 995 196 0 S 0 55.3 545
17:46:47 15 994 196 1 S 0 56.7 542
17:49:47 15 994 195 0 SW 0 56.7 541
17:52:49 15 995 194 0 SO 0 56.6 544
17:55:46 14 994 193 2 SW 0 57.5 544
17:58:48 14 995 192 0 NO 0 58.3 545
18:01:46 14 995 190 0 S 0 58.6 544
18:04:47 14 994 189 0 S 0 59.4 535
18:07:48 14 995 187 0 SO 0 60 533
18:10:47 14 994 185 1 S 0 60.8 538
18:13:46 14 994 182 0 SO 0 61.7 527
18:16:49 13 995 180 0 SW 0 62.2 521
18:19:47 13 994 178 0 O 0 63.1 518
18:22:49 13 995 174 0 SO 0 63.6 528
18:25:47 13 994 172 0 SO 0 64 530
18:28:49 13 995 168 0 SW 0 64.9 532
18:31:48 12 994 164 0 SO 0 65.5 541
18:34:47 12 995 159 0 S 0 66 547
18:37:49 12 994 154 0 O 0 66.5 558
18:40:46 12 995 147 0 O 0 67.2 557
18:43:48 12 994 137 0 O 0 68.2 556
18:46:45 12 994 127 0 O 0 68.5 559
18:49:47 11 995 120 0 O 0 69 567
18:52:47 11 994 109 0 O 0 69.8 582
18:55:47 11 994 98 0 O 0 70.4 591
18:58:46 11 994 85 0 O 0 71.5 597
19:01:45 11 994 71 0 O 0 72 600
19:04:46 10 994 56 0 O 0 72.6 606
19:07:46 10 995 43 0 O 0 73.2 603
19:10:47 10 994 31 0 O 0 74 603
19:13:47 10 994 21 0 O 0 74.5 598
19:16:45 10 994 14 0 O 0 74.6 608
19:19:46 10 995 10 0 O 0 75.1 611
19:22:46 10 995 7 0 O 0 76 609
19:25:46 10 995 5 0 O 0 76.1 609
19:28:47 9 994 4 0 O 0 76.8 607
19:31:47 9 995 3 0 O 0 79.1 616
19:34:44 9 994 3 0 O 0 79.4 621
19:37:45 9 994 0 0 S 0 79.4 624
19:40:47 9 995 0 0 SO 0 81.6 630
19:43:45 9 995 0 0 SO 0 82.1 641
19:46:46 9 995 0 0 SO 0 81.9 646
19:49:45 9 995 0 0 SO 0 81.5 658
19:52:47 9 995 4 0 SO 0 81.7 653
19:55:47 9 995 0 2 SO 0 82.7 507
19:58:47 9 994 0 0 SO 0 84.1 510
20:01:46 9 995 0 0 SO 0 84.6 579
20:04:47 9 995 0 0 SO 0 84.9 620
20:07:47 8 994 0 0 SO 0 85 626
20:10:49 8 994 0 0 SO 0 84.2 612
20:13:48 8 995 0 0 SO 0 84.2 614
20:16:48 8 995 0 2 SO 0 83.7 618
20:19:47 8 994 0 0 SO 0 84 627
20:22:47 8 995 0 0 SO 0 84.1 632
20:25:47 8 994 0 0 SO 0 83.8 633
20:28:48 9 995 0 0 SO 0 83.2 627
20:31:48 9 994 0 0 SO 0 83.1 631
20:34:47 9 995 0 1 SO 0 83 631
20:37:46 9 995 0 0 SO 0 83 635
20:40:46 9 995 0 1 SO 0 83 641
20:43:46 9 995 0 0 S 0 83.1 644
20:46:45 9 995 0 1 S 0 83.1 652
20:49:48 9 995 0 0 SO 0 82.8 667
20:52:47 9 995 0 2 S 0 82.8 671
20:55:47 9 995 0 3 SO 0 82.8 671
20:58:47 9 995 0 1 SO 0 82.5 671
21:01:46 9 995 0 1 S 0 82.2 673
21:04:47 9 995 0 2 O 0 81.8 667
21:07:47 9 995 0 0 SO 0 81.7 676
21:10:49 9 995 0 6 SO 0 81.4 668
21:13:45 9 994 0 3 S 0 81.2 676
21:16:46 9 994 0 1 SW 0 80.7 681
21:19:47 10 995 0 6 SO 0 80.3 691
21:22:49 10 995 0 2 S 0 79.9 690
21:25:45 10 994 0 4 S 0 79.7 691
21:28:47 10 995 0 3 S 0 79.3 693
21:31:46 10 994 0 5 S 0 79.1 692
21:34:45 10 995 0 4 S 0 78.8 697
21:37:45 10 994 0 4 S 0 78.6 694
21:40:47 10 994 0 1 SW 0 78.1 691
21:43:47 10 994 0 5 SW 0 77.9 693
21:46:49 10 994 0 0 SO 0 77.8 696
21:49:46 10 994 0 2 S 0 77.6 694
21:52:47 10 995 0 1 SW 0 77.6 705
21:55:48 10 995 0 2 SO 0 77.6 697
21:58:44 10 994 0 1 SO 0 77.6 708
22:01:48 10 995 0 5 SO 0 77.6 703
22:04:48 10 994 0 3 SO 0 77.5 708
22:07:46 10 994 0 3 SW 0 77.7 713
22:10:47 10 994 0 1 SO 0 77.7 717
22:13:48 10 994 0 2 SO 0 77.9 718
22:16:47 10 994 0 4 SO 0 78.1 720
22:19:47 9 995 0 2 S 0 78.3 714
22:22:48 9 995 0 4 SO 0 78.8 718
22:25:46 9 994 0 1 SO 0 79 725
22:28:47 9 995 0 2 W 0 79.3 726
22:31:48 9 994 0 5 S 0 79.6 725
22:34:46 9 994 0 2 SO 0 80.1 731
22:37:48 9 994 0 0 SO 0 80 728
22:40:45 9 994 0 1 SO 0 79.8 737
22:43:46 9 995 0 1 SW 0 79.9 740
22:46:45 9 994 0 1 S 0 80 743
22:49:47 9 995 0 0 SW 0 80.1 744
22:52:47 9 995 0 2 SO 0 80.4 741
22:55:45 9 994 0 5 S 0 80.8 736
22:58:46 9 994 0 0 S 0 81 738
23:01:47 9 994 0 3 SO 0 81.5 740
23:04:45 9 995 0 3 O 0 81.4 744
23:07:45 9 994 0 2 S 0 81.6 743
23:10:47 9 995 0 2 SO 0 81.9 743
23:13:46 9 994 0 1 SO 0 81.9 752
23:16:47 9 994 0 3 SW 0 81.8 756
23:19:48 9 995 0 3 S 0 82.2 754
23:22:46 9 994 0 2 S 0 82.4 758
23:25:46 9 995 0 1 SO 0 82.4 750
23:28:49 9 994 0 2 SO 0 82.5 753
23:31:44 9 994 0 1 S 0 82.9 750
23:34:48 9 995 0 2 SO 0 82.5 759
23:37:49 9 995 0 3 SO 0 82.5 761
23:40:47 9 995 0 2 S 0 82.6 758
23:43:47 9 994 0 3 S 0 82.5 758
23:46:47 9 994 0 1 SO 0 82.3 756
23:49:46 9 994 0 2 S 0 82.4 752
23:52:46 9 994 0 1 SO 0 82.4 756
23:55:47 9 994 0 1 S 0 82.4 753
23:58:45 9 994 0 1 SO 0 82.4 746

Letzte Änderung : 22-Jul-2022
Copyright Jens Köhler, Wolfsburg, Obere Dorfstraße 10d